Regional Weather Roundup
Issued by NWS

Home | Current Version | Previous Version | Graphics & Text | Print | Product List | Glossary On
Versions: 1 2 3 4 5 6 7 8 9 10 11 12 13 14 15 16 17 18 19 20 21 22 23 24 25 26 27 28 29 30 31 32 33 34 35 36 37 38 39 40 41 42 43 44 45 46 47 48 49 50
000
ASUS45 KCYS 270310
RWRWY

WYOMING REGIONAL WEATHER ROUNDUP
NATIONAL WEATHER SERVICE CHEYENNE WY
800 PM MST THU FEB 26 2015

NOTE:  "FAIR" INDICATES FEW OR NO CLOUDS BELOW 12,000 FEET
WITH NO SIGNIFICANT WEATHER AND/OR OBSTRUCTIONS TO VISIBILITY.

WYZ001-270400-
YELLOWSTONE NATIONAL PARK

CITY           SKY/WX    TMP DP  RH WIND       PRES   REMARKS
LK YELLOWSTONE   N/A     10  -1  61 CALM      29.88F
W YELLOWSTONE  NOT AVBL

$$
WYZ002>013-054>058-071-098>099-270400-
NORTHERN WYOMING

CITY           SKY/WX    TMP DP  RH WIND       PRES   REMARKS
JACKSON        CLEAR     14  10  85 CALM      29.89R
CODY           CLOUDY     7   5  92 N3        30.10F
GREYBULL       CLOUDY    15   4  61 NW7       30.19S WCI   5
WORLAND        CLOUDY    17  11  77 S3        30.16F
SHERIDAN       FAIR      -2  -7  79 SW5       30.23F WCI -12
BUFFALO        CLOUDY     5  -1  76 CALM      30.15F
GILLETTE       FAIR      -8 -13  78 S3        30.23F
HULETT         FAIR       0  -9  65 CALM      30.26F
NEWCASTLE      CLOUDY     7   1  78 S8        30.28S WCI  -6

$$
WYZ014>020-022>026-101>103-270400-
CENTRAL WYOMING

CITY           SKY/WX    TMP DP  RH WIND       PRES   REMARKS
BIG PINEY      LGT SNOW  16   9  74 S10       29.91S WCI   4
PINEDALE       LGT SNOW  16  10  79 SE7       29.92R WCI   6
DUBOIS         CLOUDY     5   3  92 SE6       29.95S WCI  -6
LANDER         LGT SNOW  11   7  84 CALM      30.06F FOG
RIVERTON       LGT SNOW   9   4  80 NE7       30.09S WCI  -2
CASPER         CLOUDY     6  -1  73 NE10      30.12F WCI  -9
DOUGLAS        FAIR       4   0  83 E6        30.18F WCI  -7

$$
WYZ021-027>030-104>119-270400-
SOUTHERN WYOMING

CITY           SKY/WX    TMP DP  RH WIND       PRES   REMARKS
EVANSTON       LGT SNOW  24  21  88 N3        29.87S FOG
FORT BRIDGER   LGT SNOW  23  22  98 E10       29.90S WCI  12
ROCK SPRINGS   CLOUDY     9   5  84 NE20      29.94S WCI -10
DIXON          CLOUDY    21  13  70 NE14      29.91S WCI   8
RAWLINS        CLOUDY     8   2  76 NE16      29.97S WCI -10
SARATOGA       CLOUDY    12   9  85 W9        29.93S WCI   0
LARAMIE        CLOUDY     4  -3  73 SE15      29.95F WCI -14
CHEYENNE       LGT SNOW   8   3  80 SE10      30.08F WCI  -6
TORRINGTON     FAIR       7   0  73 E10       30.25S WCI  -8
PINE BLUFFS    FLURRIES  10   5  79 E10       30.19S WCI  -3

$$


USA.gov is the U.S. government's official web portal to all federal, state and local government web resources and services.